Zhou Enlai (43156 NORAD) Tracking and Keplerian Element Data

This shows tracking and keplerian element data for the satellite.

Feedback or suggestion? Click here.




ElementValue
Catalog43156
NameZhou Enlai
Epoch Orbit7389
Epoch Day143.83442057
Epoch Year2019
RAAN216.8152
Inclination97.4913
Eccentricity0.0016274
Argument of Perigee55.8657
Mean Anonmoly83.2003
Mean Motion15.10600525
Decay Rate6.09E-06
L11 43156U 18008B 19143.83442057 .00000609 00000-0 40581-4 0 9994
L22 43156 97.4913 216.8152 0016274 55.8657 83.2003 15.10600525 73893

Live tracking and technical data element details for Zhou Enlai (NORAD 43156). Zhou Enlai can be tracked NOW for your location showing map with azimuth and elevation plus other details from your city location.

Track the satellite on the map from your city or location and see movement details for azimuth, elevation, latitude, longitude, range, height, and movement on the map or in text.







IsCatalogInMostPopularTable: catalog: 43156, numindb: 219
Update: records affected: 1



GetName: 43156 Zhou Enlai

Hit Count: updated at: Mon, 27 May 2019 04:19:47 GMT